Location: Morosaglia
(42.4360°N, 9.3069°E)
Time: 13:25:35
(UTC+00:00)

Cosmos 2074 Rocket - Pass Details

Date: 07 June 2020
Orbit: 966 x 987 km, 82.9° (Epoch: 13 July)

Event Time Altitude Azimuth Distance (km) Brightness Sun altitude
Exits shadow 00:51:25 38° 178° (S) 1,468 4.5 -21.6°
Maximum altitude 00:54:03 82° 96° (E) 1,000 4.0 -21.4°
Drops below altitude 10° 01:00:21 10° 9° (N) 2,744 7.4 -20.9°
Sets 01:02:52 0° 9° (N) 3,694 8.4 -20.7°
